STARLINK-37455, 69299

Orbit data source: Space-Track

STARLINK-37455, 69299 is a payload satellite owned by SpaceX/Seattle (US) in SSO that was launched on Sat, 30 May 2026 UTC via an FALCON 9 launch vehicle from the Air Force Western Test Range (AFWTR). Payload-class satellites include a variety of spacecraft equipped with specific instruments for various scientific and technological missions. These include communications satellites like Starlink; space stations such as the ISS; scientific satellites like the Hubble; Earth observation satellites from companies like Planet Labs, Umbra, and HawkEye 360; GPS; miniature CubeSats for education and research; and military/defense satellites.

Loading next visibility...
Identifier
69299, 2026-119D
Orbit
SSO
Country
Flag of USUS
Related business
Manufacturer
SpaceX/Seattle
Mission
Operational spacecraft
Bus & Motor
STARLINK V2MO, Unknown motor
Mass
575 kg wet, ~530 kg dry
Launch date (UTC)
2026-05-30 (2 months ago)
Launch vehicle
FALCON 9
Launch site
Air Force Western Test Range (AFWTR)
Object type
Payload
Rocket body
Debris
Shape & HBR
BOX + PAN, 17.7 m
Radar Cross Section
Large (>1 m²)

Expand to show TLE details & history
Last TLE update: 1 day ago

TLE from 1 day ago
0 STARLINK-37455
1 69299U 26119D   26206.03514799  .00031794  00000-0  98249-3 0  9997
2 69299  97.2847 231.5432 0001612  93.1186 267.0242 15.33460902  9850
Epoch: 2026-07-25T00:50Z
TLE epoch observation values (Epoch: 2026-07-25T00:50:36.786Z)
Latitude
0.00006°
Longitude
-83.8633°
Altitude
468.665 km
Speed
7.632 km/s
True Right ascension
15h 26m 10s
True Declination
0° 00' 00"
Sunlit
Object was in daylight at epoch
Visualization orbit readout
Latitude
Unknown
Longitude
Unknown
Altitude
Unknown
Speed
Unknown
Apparent Right ascension
Unknown
Apparent Declination
Unknown
Sunlit
N/A
Visualization observer readout
Local Sidereal Time
13:35:15
Azimuth
Unknown
Elevation
Unknown
Doppler factor
Unknown
Orbital elements
Apogee altitude
463.541 km
Perigee altitude
461.336 km
Semi-major axis
6,840.576 km
Eccentricity
0.00016
Inclination
97.2847°
RAAN
231.5432°
Arg. of periapsis
93.1186°
True anomaly
267.00575°
Mean anomaly
267.0242°
Eccentric anomaly
267.01498°
Mean motion
3.83623 °/min
Orbital period
93.84 mins
BSTAR
0.00098249
Loading maneuver chart data...
Computing Atmospheric mass density...
Loading historical data...
Loading historical data...
Loading historical data...
Loading historical data...
Loading historical data...
Loading historical data...
Loading historical data...

Documentation

Showing up to 5 results
|